#timestamp,LO_Frequency,Hit,StdDev 
1674597615.8,286047000.7,N
1674597635.6,286046998.6,N
1674597655.5,286046998.7,N
1674597675.3,286046998.8,N
1674597695.1,286046998.7,N
1674597715.9,286047000.9,N
1674597735.7,286047000.8,N
1674597755.5,286047000.8,N
1674597775.4,286046998.1,N
1674597795.2,286047001.1,N
1674597815.0,286046998.5,N
1674597815.9,286046998.5,N
1674597835.8,286047001.1,N
1674597855.6,286047000.6,N
1674597875.4,286047000.0,N
1674597895.3,286047000.6,N
1674597915.1,286047000.0,N
1674597935.8,286047001.2,N
1674597955.7,286047001.1,N
1674597975.5,286047001.0,N
1674597995.3,286046998.2,N
1674598015.2,286046998.7,N
1674598035.0,286047001.2,N
1674598035.9,286047001.2,N
1674598055.7,286046999.0,N
1674598075.6,286046999.4,N
1674598095.4,286046998.7,N
1674598115.2,286046998.8,N
1674598135.1,286046998.2,N
1674598136.0,286046998.2,N
1674598155.8,286046998.1,N
1674598175.6,286046998.1,N
1674598195.5,286047000.9,N
1674598215.3,286047001.0,N
1674598235.1,286046998.5,N
1674598255.9,286046998.6,N
1674598275.7,286047001.0,N
1674598295.5,286047001.0,N
1674598315.4,286046998.1,N
1674598335.2,286047001.1,N
1674598355.0,286047000.8,N
1674598355.9,286047000.8,N
1674598375.8,286046998.7,N
1674598395.6,286046998.8,N
1674598415.4,286047001.0,N
1674598435.3,286046998.2,N
1674598455.1,286047001.2,N
1674598475.8,286046998.6,N
1674598495.7,286047001.1,N
1674598515.5,286047001.0,N
1674598535.3,286046999.8,N
1674598555.2,286047002.4,N
1674598575.9,286047002.8,N
1674598595.7,286047002.0,N
1674598615.6,286047000.0,N
1674598635.4,286047000.5,N
1674598655.2,286046998.6,N
1674598675.1,286046998.3,N
1674598676.0,286046998.3,N
1674598695.8,286046999.6,N
1674598715.6,286047001.1,N
1674598735.5,286046999.2,N
1674598755.3,286046999.4,N
1674598775.1,286046999.2,N
1674598795.9,286046998.8,N
1674598815.7,286046998.3,N
1674598835.5,286047001.1,N
1674598855.4,286046998.9,N
1674598875.2,286046998.1,N
1674598895.0,286046998.3,N
1674598895.9,286046998.3,N
1674598915.8,286046999.5,N
1674598935.6,286046998.3,N
1674598955.4,286046999.4,N
1674598975.3,286046997.1,N
1674598995.1,286046997.5,N
1674598996.0,286046997.5,N
1674599015.8,286046998.0,N
1674599035.7,286046997.4,N
1674599055.5,286046996.7,N
1674599075.3,286046997.7,N
1674599095.2,286046997.8,N
1674599115.9,286046997.5,N
1674599135.7,286046997.0,N
1674599155.6,286046996.7,N
1674599175.4,286046996.8,N
1674599195.2,286046997.7,N
1674599215.0,286046997.2,N
1674599216.0,286046997.2,N
1674599235.8,286046995.1,Y
1674599255.6,286046996.7,P
1674599275.5,286046996.9,P
1674599295.3,286046999.5,N
1674599315.1,286046999.4,N
1674599335.8,286046998.1,N
1674599355.7,286047001.1,N
1674599375.5,286046999.9,N
1674599395.3,286047001.3,N
1674599415.2,286047000.2,N
1674599435.0,286046999.7,N
1674599435.9,286046999.7,N
1674599455.7,286047002.3,N
1674599475.6,286047002.8,N
1674599495.4,286047001.9,N
1674599515.2,286047001.6,N
1674599535.1,286047002.6,N
1674599536.0,286047002.6,N
1674599555.8,286047002.8,N
1674599575.6,286046999.9,N
1674599595.5,286046998.2,N
1674599615.3,286046999.1,N
1674599635.1,286046999.2,N
1674599655.9,286046996.7,N
1674599675.7,286046998.7,N
1674599695.5,286046998.3,N
1674599715.4,286046998.1,N
1674599735.2,286046998.4,N
1674599755.0,286047001.2,N
1674599755.9,286047001.2,N
1674599775.8,286046998.3,N
1674599795.6,286046999.0,N
1674599815.4,286046996.6,N
1674599835.3,286046997.8,N
1674599855.1,286046997.7,N
1674599856.0,286046997.7,N
1674599875.8,286046995.1,N
1674599895.7,286046995.2,N
1674599915.5,286046996.2,N
1674599935.3,286046996.3,N
1674599955.2,286046995.7,N
1674599975.9,286046995.4,N
1674599995.7,286046995.7,N
1674600015.6,286046995.7,N
1674600035.4,286046993.6,N
1674600055.2,286046993.9,N
1674600075.1,286046994.6,N
1674600076.0,286046994.6,N
1674600095.8,286046994.6,N
1674600115.6,286046993.5,Y
1674600135.5,286046997.1,P
1674600155.3,286046999.1,P
1674600175.1,286046998.5,N
1674600195.9,286047002.5,N
1674600215.7,286046999.3,N
1674600235.5,286046999.0,N
1674600255.4,286046998.9,N
1674600275.2,286047000.9,N
1674600295.0,286046998.3,N
1674600295.9,286046998.3,N
1674600315.8,286047001.0,N
1674600335.6,286046999.1,N
1674600355.4,286046997.2,N
1674600375.3,286046996.7,N
1674600395.1,286046996.6,N
1674600396.0,286046996.6,N
1674600415.8,286046996.6,N
1674600435.7,286046999.6,N
1674600455.5,286046999.3,N
1674600475.3,286046998.9,N
1674600495.1,286046998.4,N
1674600515.9,286046998.5,N
1674600535.7,286046998.5,N
1674600555.5,286046998.4,N
1674600575.4,286046998.2,N
1674600595.2,286046998.4,N
1674600615.0,286046998.1,N
1674600615.9,286046998.1,N
1674600635.8,286046999.3,N
1674600655.6,286046996.5,N
1674600675.4,286046996.8,N
1674600695.3,286046997.4,N
1674600715.1,286046999.5,N
1674600735.8,286046996.5,N
1674600755.7,286046999.2,N
1674600775.5,286046998.8,N
1674600795.3,286046998.3,N
1674600815.2,286047000.8,N
1674600835.0,286047000.7,N
1674600835.9,286047000.7,N
1674600855.7,286047000.1,N
1674600875.6,286047000.0,N
1674600895.4,286047002.5,N
1674600915.2,286047001.9,N
1674600935.1,286047002.4,N
1674600936.0,286047002.4,N
1674600955.8,286046999.8,N
1674600975.6,286047000.4,N
1674600995.5,286046999.8,N
1674601015.3,286047001.2,N
1674601035.1,286047001.1,N
1674601055.9,286046999.0,N
1674601075.7,286046998.2,N
1674601095.5,286046998.3,N
1674601115.4,286047001.1,N
1674601135.2,286047000.3,N
1674601155.0,286047000.4,N
1674601155.9,286047000.4,N
1674601175.8,286047001.2,N
1674601195.6,286046998.6,N
